Regional Weather Roundup
Issued by NWS

Home | Current Version | Previous Version | Graphics & Text | Print | Product List | Glossary Off
Versions: 1 2 3 4 5 6 7 8 9 10 11 12 13 14 15 16 17 18 19 20 21 22 23 24 25 26 27 28 29 30 31 32 33 34 35 36 37 38 39 40 41 42 43 44 45 46 47 48 49 50

000
ASUS43 KMKX 201821
RWRWI

WISCONSIN REGIONAL WEATHER ROUNDUP
NATIONAL WEATHER SERVICE MILWAUKEE/SULLIVAN WI
100 PM CDT WED SEP 20 2017

NOTE: "FAIR" INDICATES FEW OR NO CLOUDS BELOW 12,000 FEET WITH NO
SIGNIFICANT WEATHER AND/OR OBSTRUCTIONS TO VISIBILITY.

WIZ001-002-006>008-014>016-023>028-201900-
NORTHWEST WISCONSIN

CITY           SKY/WX    TMP DP  RH WIND       PRES   REMARKS
SUPERIOR ARPT  CLOUDY    69  62  77 W12G18    29.73R
6HR MIN TEMP:  62; 6HR MAX TEMP:  71;

ASHLAND        CLOUDY    73  66  78 S12G26    29.72R
6HR MIN TEMP:  62; 6HR MAX TEMP:  72;

HAYWARD        CLOUDY    73  65  75 S16G22    29.75R
6HR MIN TEMP:  64; 6HR MAX TEMP:  73;

SIREN          PTSUNNY   70  61  71 W7        29.77S
6HR MIN TEMP:  65; 6HR MAX TEMP:  74;

CUMBERLAND     CLOUDY    66  61  82 W14G23    29.79R
RICE LAKE      CLOUDY    71  63  76 W10       29.79R
6HR MIN TEMP:  65; 6HR MAX TEMP:  74;

CHETEK         CLOUDY    76  69  78 W5        29.76R
6HR MIN TEMP:  64; 6HR MAX TEMP:  76;

LADYSMITH      CLOUDY    72  66  82 S7        29.79R
6HR MIN TEMP:  64; 6HR MAX TEMP:  72;

EAU CLAIRE     PTSUNNY   79  68  69 S7        29.75R HX  81
6HR MIN TEMP:  65; 6HR MAX TEMP:  79;

MENOMONIE      CLOUDY    74  67  78 W14       29.77R
6HR MIN TEMP:  65; 6HR MAX TEMP:  78;

NEW RICHMOND   PTSUNNY   71  59  64 W9        29.79S
6HR MIN TEMP:  67; 6HR MAX TEMP:  73;

OSCEOLA        MOSUNNY   73  57  57 W10       29.81R
6HR MIN TEMP:  67; 6HR MAX TEMP:  74;

$$

WIZ003>005-009-010-017-018-201900-
NORTH CENTRAL WISCONSIN

CITY           SKY/WX    TMP DP  RH WIND       PRES   REMARKS
MANITOWISH WTR CLOUDY    65  65 100 S12G22    29.79F
6HR MIN TEMP:  60; 6HR MAX TEMP:  65; 6HR PCP:  0.23;

ARBOR VITAE    CLOUDY    66  64  93 S9        29.81S
6HR MIN TEMP:  62; 6HR MAX TEMP:  66;

WOODRUFF       CLOUDY    66  64  93 S9        29.81S
6HR MIN TEMP:  62; 6HR MAX TEMP:  66;

RHINELANDER    CLOUDY    65  64  97 S9G21     29.83S FOG
6HR MIN TEMP:  61; 6HR MAX TEMP:  65; 6HR PCP:  0.30;

EAGLE RIVER    CLOUDY    65  64  96 S6        29.82S
6HR MIN TEMP:  60; 6HR MAX TEMP:  65;

LAND O LAKES   CLOUDY    66  63  89 S8G22     29.83R
6HR MIN TEMP:  60; 6HR MAX TEMP:  67; 6HR PCP:  0.01;

PHILLIPS       CLOUDY    66  66  97 S7        29.79S
TOMAHAWK         N/A     65  63  93 S3        29.82S FOG
6HR MIN TEMP:  60; 6HR MAX TEMP:  65;

MEDFORD        CLOUDY    68  65  89 S6        29.81S
6HR MIN TEMP:  61; 6HR MAX TEMP:  68; 6HR PCP:  0.09;

MERRILL        NOT AVBL
$$

WIZ029-030-035-036-043>047-201900-
CENTRAL WISCONSIN

CITY           SKY/WX    TMP DP  RH WIND       PRES   REMARKS
WAUSAU         CLOUDY    70  66  87 SE7       29.80F
6HR MIN TEMP:  61; 6HR MAX TEMP:  70; 6HR PCP:  0.14;

MOSINEE        CLOUDY    72  68  88 SE12      29.83F
MARSHFIELD     CLOUDY    74  65  73 SE12      29.80S
6HR MIN TEMP:  64; 6HR MAX TEMP:  74; 6HR PCP: TRACE;

STEVENS POINT  CLOUDY    74  68  82 SE7       29.82S
6HR MIN TEMP:  61; 6HR MAX TEMP:  74; 6HR PCP:  0.01;

WAUPACA        CLOUDY    82  68  63 SE12      29.81F HX  85
6HR MIN TEMP:  64; 6HR MAX TEMP:  82;

WAUTOMA        MOSUNNY   82  70  65 S13       29.80F HX  86
6HR MIN TEMP:  62; 6HR MAX TEMP:  83; 6HR PCP:  0.06;

WISC RAPIDS    CLOUDY    78  69  73 S7        29.81S HX  80
6HR MIN TEMP:  64; 6HR MAX TEMP:  78; 6HR PCP: TRACE;

CAMP DOUGLAS   PTSUNNY   82  70  65 S12       29.78S HX  86
                                      6HR PCP: TRACE;

$$

WIZ011>013-019>022-031-037>040-048>050-201900-
NORTHEAST WISCONSIN

CITY           SKY/WX    TMP DP  RH WIND       PRES   REMARKS
ANTIGO         CLOUDY    66  65  98 SE10      29.85S FOG
6HR MIN TEMP:  58; 6HR MAX TEMP:  66; 6HR PCP:  0.24;

SHAWANO        CLOUDY    77  67  72 SE9G16    29.82F
OCONTO         CLOUDY    73  65  76 SE14G22   29.84F
6HR MIN TEMP:  64; 6HR MAX TEMP:  73;

STURGEON BAY   CLOUDY    69  65  86 SE20G25   29.88F
6HR MIN TEMP:  64; 6HR MAX TEMP:  70;

GREEN BAY      CLOUDY    77  67  71 SE23G32   29.84F
6HR MIN TEMP:  63; 6HR MAX TEMP:  77;

MANITOWOC      PTSUNNY   70  66  87 SE22G29   29.90F
6HR MIN TEMP:  65; 6HR MAX TEMP:  71;

APPLETON       MOSUNNY   79  64  61 SE16G23   29.82F HX  81
CLINTONVILLE   CLOUDY    79  64  61 S18       29.82F HX  81
OSHKOSH        MOSUNNY   79  68  69 SE18G28   29.82F HX  81
6HR MIN TEMP:  63; 6HR MAX TEMP:  79;

$$

WIZ032>034-041-042-053>061-201900-
SOUTHWEST WISCONSIN

CITY           SKY/WX    TMP DP  RH WIND       PRES   REMARKS
LA CROSSE      CLOUDY    83  70  64 SW9       29.76R HX  87
6HR MIN TEMP:  71; 6HR MAX TEMP:  86;

SPARTA         CLOUDY    81  69  68 S9        29.78R HX  84
6HR MIN TEMP:  66; 6HR MAX TEMP:  81; 6HR PCP:  0.02;

VIROQUA        PTSUNNY   82  71  68 SW13      29.80R HX  86
6HR MIN TEMP:  66; 6HR MAX TEMP:  82;

BOSCOBEL       MOSUNNY   87  69  54 S6G18     29.78R HX  91
6HR MIN TEMP:  70; 6HR MAX TEMP:  87;

PRAIRIE DU CHI SUNNY     85  66  52 S7        29.77R HX  88
6HR MIN TEMP:  68; 6HR MAX TEMP:  86;

PLATTEVILLE    SUNNY     85  72  65 S17       29.82S HX  91
6HR MIN TEMP:  66; 6HR MAX TEMP:  85;

$$

WIZ056-057-062-063-064-067-068-201900-
SOUTH CENTRAL WISCONSIN

CITY           SKY/WX    TMP DP  RH WIND       PRES   REMARKS
REEDSBURG      SUNNY     85  70  62 S10       29.79S HX  89
6HR MIN TEMP:  65; 6HR MAX TEMP:  85;

BARABOO/DELLS  SUNNY     84  66  54 S16G23    29.80S HX  86
6HR MIN TEMP:  65; 6HR MAX TEMP:  84; 6HR PCP:  0.01;

LONE ROCK      MOSUNNY   86  71  60 S14       29.78S HX  91
6HR MIN TEMP:  66; 6HR MAX TEMP:  86;

MINERAL POINT  SUNNY     86  72  62 S10       29.82S HX  92
MADISON        MOSUNNY   86  69  56 S17       29.81F HX  90
6HR MIN TEMP:  67; 6HR MAX TEMP:  86;

MIDDLETON      SUNNY     87  69  53 S16       29.82F HX  91
WATERTOWN      SUNNY     85  70  60 S14       29.84S HX  90
6HR MIN TEMP:  63; 6HR MAX TEMP:  85; 6HR PCP:  0.03;

MONROE         SUNNY     86  68  54 S17       29.83F HX  89
JANESVILLE     SUNNY     90  66  45 S15G23    29.84F HX  92
$$

WIZ051-052-058>065-066-070>072-201900-
SOUTHEAST WISCONSIN

CITY           SKY/WX    TMP DP  RH WIND       PRES   REMARKS
MILWAUKEE      MOSUNNY   77  68  73 SE15      29.89F
6HR MIN TEMP:  65; 6HR MAX TEMP:  78;

WAUKESHA       SUNNY     81  66  61 SE13      29.90F HX  83
MILWAUKEE/TIMM SUNNY     77  64  65 SE10      29.90F
RACINE         SUNNY     77  68  73 SE16      29.92F
6HR MIN TEMP:  67; 6HR MAX TEMP:  77;

BURLINGTON     SUNNY     87  70  56 SE10G16   29.88S HX  92
6HR MIN TEMP:  63; 6HR MAX TEMP:  87;

KENOSHA        SUNNY     84  68  58 SE13      29.90F HX  87
6HR MIN TEMP:  66; 6HR MAX TEMP:  84;

FOND DU LAC    CLOUDY    82  66  58 SE20      29.84F HX  84
6HR MIN TEMP:  64; 6HR MAX TEMP:  82;

SHEBOYGAN      CLOUDY    71  68  90 SE10G20   29.91F
6HR MIN TEMP:  64; 6HR MAX TEMP:  73;

WEST BEND        N/A     77  68  73 SE14      29.88F
JUNEAU           N/A     82  69  66 SE14      29.85S HX  85
$$

LSZ147-162-201900-
LAKE SUPERIOR

STATION/POSITION TIME  TEMP    WIND        PRES    WAVE
                       AIR SEA DIR/SP/G            HT/PER
                 (UTC) (F)     (DEG/KT/KT) (MB)    (FT/S)
W MID LAKE BUOY  1750   63 54  210/  8/  8 1006.1R   3/ 5
DEVILS ISLAND    1800   70     180/  8/ 13 1005.5R
SAXON HARBOR     1740   72     200/ 11/ 20 1005.8R
$$

LMZ867-665-643>646-201900-
LAKE MICHIGAN

STATION/POSITION TIME  TEMP    WIND        PRES    WAVE
                       AIR SEA DIR/SP/G            HT/PER
                 (UTC) (F)     (DEG/KT/KT) (MB)    (FT/S)
S GREEN BAY BUOY 1730   69 66  150/ 14/ 17 1011.4F
N MID LAKE BUOY  1750   66 65  150/  8/ 10 1012.8F   1/ 4
NORTHPORT PIER   1800   67     150/ 12/ 21 1011.5
KEWAUNEE LAKESHO 1754   63     180/ 10/ 13 1012.0F
SHEBOYGAN LAKESH 1800   66     150/ 17



USA.gov is the U.S. government's official web portal to all federal, state and local government web resources and services.